2023/07/22 00:00:00, 0.0,22.1
2023/07/22 00:10:00, 0.0,21.9
2023/07/22 00:20:00, 0.0,22.1
2023/07/22 00:30:00, 0.0,21.9
2023/07/22 00:40:00, 0.0,21.3
2023/07/22 00:50:00, 0.0,21.5
2023/07/22 01:00:00, 0.0,21.8
2023/07/22 01:10:00, 0.0,21.5
2023/07/22 01:20:00, 0.0,21.5
2023/07/22 01:30:00, 0.0,21.4
2023/07/22 01:40:00, 0.0,21.1
2023/07/22 01:50:00, 0.0,21.4
2023/07/22 02:00:00, 0.0,21.2
2023/07/22 02:10:00, 0.0,21.2
2023/07/22 02:20:00, 0.0,21.2
2023/07/22 02:30:00, 0.0,21.1
2023/07/22 02:40:00, 0.0,21.1
2023/07/22 02:50:00, 0.0,20.9
2023/07/22 03:00:00, 0.0,20.9
2023/07/22 03:10:00, 0.0,21.0
2023/07/22 03:20:00, 0.0,20.8
2023/07/22 03:30:00, 0.0,20.8
2023/07/22 03:40:00, 0.0,20.6
2023/07/22 03:50:00, 0.0,20.4
2023/07/22 04:00:00, 0.0,20.3
2023/07/22 04:10:00, 0.0,20.4
2023/07/22 04:20:00, 0.0,20.4
2023/07/22 04:30:00, 0.0,20.3
2023/07/22 04:40:00, 0.0,20.2
2023/07/22 04:50:00, 0.0,20.2
2023/07/22 05:00:00, 0.0,20.2
2023/07/22 05:10:00, 0.0,20.2
2023/07/22 05:20:00, 0.0,20.4
2023/07/22 05:30:00, 0.0,20.4
2023/07/22 05:40:00, 0.0,20.4
2023/07/22 05:50:00, 0.0,20.5
2023/07/22 06:00:00, 0.0,20.5
2023/07/22 06:10:00, 0.0,20.9
2023/07/22 06:20:00, 0.1,21.2
2023/07/22 06:30:00, 0.0,21.3
2023/07/22 06:40:00, 0.1,21.6
2023/07/22 06:50:00, 0.0,21.8
2023/07/22 07:00:00, 0.0,22.7
2023/07/22 07:10:00, 0.1,23.4
2023/07/22 07:20:00, 0.1,24.0
2023/07/22 07:30:00, 0.1,24.7
2023/07/22 07:40:00, 0.2,25.5
2023/07/22 07:50:00, 0.2,25.9
2023/07/22 08:00:00, 0.3,26.0
2023/07/22 08:10:00, 0.3,26.2
2023/07/22 08:20:00, 0.4,26.8
2023/07/22 08:30:00, 0.3,27.1
2023/07/22 08:40:00, 0.4,27.9
2023/07/22 08:50:00, 0.3,28.2
2023/07/22 09:00:00, 0.3,28.6
2023/07/22 09:10:00, 0.5,29.0
2023/07/22 09:20:00, 0.4,29.4
2023/07/22 09:30:00, 0.5,29.7
2023/07/22 09:40:00, 0.4,29.3
2023/07/22 09:50:00, 0.5,29.6
2023/07/22 10:00:00, 0.5,29.2
2023/07/22 10:10:00, 0.4,28.5
2023/07/22 10:20:00, 0.5,28.8
2023/07/22 10:30:00, 0.5,28.8
2023/07/22 10:40:00, 0.5,28.9
2023/07/22 10:50:00, 0.6,28.5
2023/07/22 11:00:00, 0.5,28.7
2023/07/22 11:10:00, 0.6,29.3
2023/07/22 11:20:00, 0.6,28.6
2023/07/22 11:30:00, 0.7,28.3
2023/07/22 11:40:00, 0.8,28.8
2023/07/22 11:50:00, 0.7,28.9
2023/07/22 12:00:00, 0.7,29.5
2023/07/22 12:10:00, 0.7,28.8
2023/07/22 12:20:00, 0.7,29.3
2023/07/22 12:30:00, 0.7,29.6
2023/07/22 12:40:00, 0.5,29.6
2023/07/22 12:50:00, 0.6,29.4
2023/07/22 13:00:00, 0.3,29.0
2023/07/22 13:10:00, 0.2,29.7
2023/07/22 13:20:00, 0.2,30.5
2023/07/22 13:30:00, 0.5,30.8
2023/07/22 13:40:00, 0.0,30.2
2023/07/22 13:50:00, 0.0,30.4
2023/07/22 14:00:00, 0.0,30.9
2023/07/22 14:10:00, 0.2,30.7
2023/07/22 14:20:00, 0.2,31.3
2023/07/22 14:30:00, 0.1,31.8
2023/07/22 14:40:00, 0.2,31.4
2023/07/22 14:50:00, 0.1,31.2
2023/07/22 15:00:00, 0.1,30.8
2023/07/22 15:10:00, 0.1,30.7
2023/07/22 15:20:00, 0.2,31.6
2023/07/22 15:30:00, 0.2,31.9
2023/07/22 15:40:00, 0.3,32.2
2023/07/22 15:50:00, 0.5,32.1
2023/07/22 16:00:00, 0.4,32.7
2023/07/22 16:10:00, 0.4,33.0
2023/07/22 16:20:00, 0.1,31.9
2023/07/22 16:30:00, 0.2,32.6
2023/07/22 16:40:00, 0.1,34.0
2023/07/22 16:50:00, 0.1,33.9
2023/07/22 17:00:00, 0.1,33.5
2023/07/22 17:10:00, 0.1,34.8
2023/07/22 17:20:00, 0.1,34.9
2023/07/22 17:30:00, 0.1,34.9
2023/07/22 17:40:00, 0.0,34.6
2023/07/22 17:50:00, 0.0,34.6
2023/07/22 18:00:00, 0.0,35.1
2023/07/22 18:10:00, 0.1,34.9
2023/07/22 18:20:00, 0.0,34.3
2023/07/22 18:30:00, 0.0,33.3
2023/07/22 18:40:00, 0.0,32.0
2023/07/22 18:50:00, 0.0,28.8
2023/07/22 19:00:00, 0.0,27.6
2023/07/22 19:10:00, 0.0,26.9
2023/07/22 19:20:00, 0.0,26.2
2023/07/22 19:30:00, 0.0,25.8
2023/07/22 19:40:00, 0.0,25.2
2023/07/22 19:50:00, 0.0,25.2
2023/07/22 20:00:00, 0.0,24.9
2023/07/22 20:10:00, 0.0,24.5
2023/07/22 20:20:00, 0.0,24.7
2023/07/22 20:30:00, 0.0,24.7
2023/07/22 20:40:00, 0.0,24.7
2023/07/22 20:50:00, 0.0,24.7
2023/07/22 21:00:00, 0.0,24.3
2023/07/22 21:10:00, 0.0,24.6
2023/07/22 21:20:00, 0.0,24.3
2023/07/22 21:30:00, 0.0,24.2
2023/07/22 21:40:00, 0.0,24.2
2023/07/22 21:50:00, 0.0,24.0
2023/07/22 22:00:00, 0.0,23.8
2023/07/22 22:10:00, 0.0,23.7
2023/07/22 22:20:00, 0.0,23.6
2023/07/22 22:30:00, 0.0,23.5
2023/07/22 22:40:00, 0.0,23.3
2023/07/22 22:50:00, 0.0,23.2
2023/07/22 23:00:00, 0.0,23.6
2023/07/22 23:10:00, 0.0,23.7
2023/07/22 23:20:00, 0.0,23.6
2023/07/22 23:30:00, 0.0,23.8
2023/07/22 23:40:00, 0.0,23.8
2023/07/22 23:50:00, 0.0,23.8
